Miscellaneous Local Product
Issued by NWS North Platte, NE

Home | Current Version | Previous Version | Text Only | Print | Product List | Glossary On
Versions: 1 2 3 4 5 6 7 8 9 10 11 12 13 14 15 16 17 18 19 20 21 22 23 24 25 26 27 28 29 30 31 32 33 34 35 36 37 38 39 40 41 42 43 44 45 46 47 48 49 50
000
AXUS43 KLBF 250310
MISLBF


WESTERN AND NORTH CENTRAL NEBRASKA HOURLY WEATHER ROUNDUP
NATIONAL WEATHER SERVICE NORTH PLATTE NE
1000 PM CDT THU JUL 24 2014

***STATIONS NOT REPORTING VARIABLES SUCH AS SKY/WEATHER OR
PRESSURE ARE PROVIDED BY THE NEBRASKA DEPARTMENT OF
ROADS...RAWS...AND APRS NETWORKS...AND ARE NOT UNDER
NATIONAL WEATHER SERVICE QUALITY CONTROL***

...OBSERVATIONS IN AND NEAR THE EASTERN PANHANDLE OF NEBRASKA...

CITY           SKY/WX    TMP DP  RH WIND       PRES   REMARKS
PINE RIDGE     CLEAR     80  55  42 S14G29    29.76S
CHADRON        CLEAR     84  52  33 S16       29.76R
ALLIANCE       CLEAR     71  59  65 S10       29.87S
SIDNEY         PTCLDY    72  55  55 S7        29.95R
WHITECLAY        N/A     81  55  40 S12         N/A
RUSHVILLE        N/A     80  54  39 SW16        N/A
GORDON           N/A     81  60  48 S17         N/A
CRESCENT LAKE    N/A     75  55  50 S5          N/A
LISCO            N/A     80  55  42 NE7         N/A
BIG SPRINGS      N/A     80  60  50 S6          N/A
$$

...OBSERVATIONS IN NORTH CENTRAL NEBRASKA...

CITY           SKY/WX    TMP DP  RH WIND       PRES   REMARKS
VALENTINE      PTCLDY    81  58  45 SE3       29.75R
THEDFORD       CLOUDY    75  63  64 S12       29.82F
AINSWORTH      CLOUDY    71  63  76 SE7       29.77F
O`NEILL        TSTM      77  66  69 S25       29.81R
ORD            CLOUDY    80  68  66 SE17G28   29.81S THUNDER
BROKEN BOW     CLOUDY    84  72  67 NW5       29.86R
BROWNLEE         N/A     81  60  49 CALM        N/A
SPRINGVIEW       N/A     78  64  61 S8G17       N/A
DUNNING          N/A     74  69  82 S3          N/A
ROSE             N/A     73  73  99 N12         N/A
NEWPORT          N/A     71  68  90 S16         N/A
SARGENT          N/A     79  65  61 W10G26      N/A
COMSTOCK         N/A     88  75  65 S8          N/A  HX  97
CHAMBERS         N/A     78  68  70 S3G18       N/A
$$

...OBSERVATIONS IN SOUTHWEST NEBRASKA AND FAR NORTHEAST COLORADO...

CITY           SKY/WX    TMP DP  RH WIND       PRES   REMARKS
WRAY             N/A     78  54  43 N6        29.93R
HOLYOKE        FAIR      73  64  73 CALM      29.92S
IMPERIAL       CLOUDY    75  61  61 N9        29.88F
OGALLALA       MOCLDY    75  56  51 CALM      29.86S
NORTH PLATTE   CLOUDY    85  52  32 VRB5      29.81F
MCCOOK         CLOUDY    92  54  27 SW8       29.87R HX  90
LEXINGTON      CLOUDY    85  72  65 SW10      29.85R HX  90
PAXTON           N/A     82  60  47 S12         N/A
SUTHERLAND       N/A     88  59  37 S6          N/A
BRADY            N/A     84  59  42 CALM        N/A
GOTHENBURG       N/A     90  62  38 SW6         N/A  HX  90
CALLAWAY         N/A     83  71  66 S18         N/A
$$

...SOME WEATHER OBSERVATIONS FROM AROUND THE REGION...

CITY           SKY/WX    TMP DP  RH WIND       PRES   REMARKS
DENVER         CLOUDY    77  51  40 S22       30.10R
LARAMIE        MOCLDY    72  47  40 SW15      30.18R
CHEYENNE       MOCLDY    78  48  34 SW10G20   30.09S
SCOTTSBLUFF    CLEAR     77  58  51 SE8       29.88R
RAPID CITY     CLEAR     80  59  48 CALM      29.67F
PIERRE         MOCLDY    85  70  60 SE16      29.60R
WINNER         FAIR      86  62  44 S24G35    29.64R
SIOUX FALLS    MOCLDY    71  62  73 S15       29.81F
OMAHA          PTCLDY    75  60  59 S22       29.91F
GRAND ISLAND   CLOUDY    80  68  66 SE18G25   29.83F
KANSAS CITY    CLEAR     75  59  57 SE9       30.04R
WICHITA        PTCLDY    82  70  66 SE12      29.96R
HAYS           MOCLDY    70  66  88 S18       29.90R
LIBERAL        PTCLDY    88  55  33 S15       29.98R
GOODLAND       CLOUDY    85  51  31 SW8       29.93R
$$



USA.gov is the U.S. government's official web portal to all federal, state and local government web resources and services.